Monroe, WI

12:45 PM CDT on May 27, 2017 (GMT -0500)
Monroe Municipal

Weather History for KEFT - October, 2013

Change the Weather History Date:

Wednesday, October 23, 2013

  Actual Average Record
Temperature  
Mean Temperature 36 °F -  
Max Temperature 42 °F 0 °F 71 °F (2004)
Min Temperature 29 °F - 29 °F (2013)
Degree Days  
Heating Degree Days 30    
Moisture  
Dew Point 28 °F    
Average Humidity 75    
Maximum Humidity 100    
Minimum Humidity 47    
Precipitation  
Precipitation 0.00 in - - ()
Sea Level Pressure  
Sea Level Pressure 29.97 in    
Wind  
Wind Speed 8 mph (WNW)    
Max Wind Speed 20 mph    
Max Gust Speed 23 mph    
Visibility 10 miles    
Events      
Averages and records for this station are not official NWS values.
T = Trace of Precipitation, MM = Missing Value Source: NWS Daily Summary

Daily Weather History Graph

Daily Weather History Graph

Search for Another Location

Airport or City:

Trip Planner

Search our weather history database for the weather conditions in past years. The results will help you decide how hot, cold, wet, or windy it might be!

Date:

Astronomy

Oct. 23, 2013 Rise Set
Actual Time 7:21 AM CDT 6:03 PM CDT
Civil Twilight 6:52 AM CDT 6:32 PM CDT
Nautical Twilight 6:19 AM CDT 7:04 PM CDT
Astronomical Twilight 5:46 AM CDT 7:37 PM CDT
Moon 9:31 PM CDT (10/23) 11:41 AM CDT (10/23)
Length of Visible Light 11h 39m
Length of Day
10h 41m
Waning Gibbous, 79% of the Moon is Illuminated
Oct 23
Waning Gibbous
Oct 26
Last Quarter
Nov 3
New
Nov 9
First Quarter
Nov 17
Full

Hourly Weather History & Observations

Time (CDT) Temp. Windchill Dew Point Humidity Pressure Visibility Wind Dir Wind Speed Gust Speed Precip Events Conditions
12:15 AM 33.1 °F 25.5 °F 31.8 °F 95% 29.94 in 10.0 mi NW 9.2 mph - N/A   Clear
12:35 AM 32.9 °F 25.9 °F 31.6 °F 95% 29.94 in 10.0 mi NW 8.1 mph - N/A   Clear
12:55 AM 32.5 °F 24.8 °F 31.5 °F 96% 29.94 in 10.0 mi NW 9.2 mph - N/A   Scattered Clouds
1:35 AM 32.9 °F 25.9 °F 31.5 °F 94% 29.94 in 10.0 mi NNW 8.1 mph - N/A   Overcast
1:55 AM 33.1 °F 26.9 °F 31.6 °F 94% 29.94 in 10.0 mi NNW 6.9 mph - N/A   Overcast
2:15 AM 32.9 °F 25.9 °F 31.5 °F 94% 29.94 in 10.0 mi NW 8.1 mph - N/A   Overcast
2:35 AM 32.9 °F 26.7 °F 31.5 °F 94% 29.94 in 10.0 mi NNW 6.9 mph - N/A   Overcast
2:55 AM 32.5 °F 26.2 °F 31.6 °F 96% 29.94 in 10.0 mi NW 6.9 mph - N/A   Overcast
3:15 AM 32.2 °F 25.0 °F 31.6 °F 98% 29.94 in 10.0 mi NW 8.1 mph - N/A   Overcast
3:35 AM 32.0 °F 26.4 °F 32.0 °F 100% 29.94 in 10.0 mi NW 5.8 mph - N/A   Overcast
3:55 AM 32.0 °F 26.4 °F 32.0 °F 100% 29.94 in 10.0 mi NNW 5.8 mph - N/A   Mostly Cloudy
4:15 AM 31.6 °F 24.4 °F 31.6 °F 100% 29.94 in 10.0 mi NW 8.1 mph - N/A   Mostly Cloudy
4:35 AM 31.3 °F 25.6 °F 31.3 °F 100% 29.94 in 10.0 mi NW 5.8 mph - N/A   Scattered Clouds
4:55 AM 30.9 °F 23.5 °F 30.9 °F 100% 29.95 in 10.0 mi WNW 8.1 mph - N/A   Scattered Clouds
5:15 AM 30.4 °F 22.2 °F 30.4 °F 100% 29.95 in 10.0 mi WNW 9.2 mph - N/A   Scattered Clouds
5:35 AM 30.0 °F 21.7 °F 30.0 °F 100% 29.95 in 10.0 mi WNW 9.2 mph - N/A   Scattered Clouds
5:55 AM 29.8 °F 22.2 °F 29.8 °F 100% 29.95 in 10.0 mi WNW 8.1 mph - N/A   Clear
6:15 AM 30.0 °F 22.4 °F 30.0 °F 100% 29.96 in 10.0 mi WNW 8.1 mph - N/A   Clear
6:35 AM 30.0 °F 22.4 °F 30.0 °F 100% 29.96 in 10.0 mi West 8.1 mph - N/A   Clear
6:55 AM 29.8 °F 21.5 °F 29.8 °F 100% 29.97 in 10.0 mi WNW 9.2 mph - N/A   Clear
7:15 AM 29.7 °F 22.0 °F 29.7 °F 100% 29.97 in 10.0 mi West 8.1 mph - N/A   Clear
7:35 AM 30.0 °F 21.7 °F 30.0 °F 100% 29.97 in 10.0 mi WNW 9.2 mph - N/A   Scattered Clouds
7:55 AM 30.2 °F 21.3 °F 30.2 °F 100% 29.97 in 10.0 mi WNW 10.4 mph - N/A   Scattered Clouds
8:15 AM 31.1 °F 23.1 °F 31.1 °F 100% 29.98 in 10.0 mi West 9.2 mph - N/A   Scattered Clouds
8:35 AM 32.0 °F 24.8 °F 32.0 °F 100% 29.98 in 10.0 mi WNW 8.1 mph - N/A   Mostly Cloudy
8:55 AM 32.9 °F 25.9 °F 32.5 °F 99% 29.99 in 10.0 mi WNW 8.1 mph - N/A   Overcast
9:15 AM 32.9 °F 26.7 °F 32.9 °F 100% 29.99 in 10.0 mi West 6.9 mph - N/A   Overcast
9:35 AM 33.3 °F 27.9 °F 32.5 °F 97% 29.99 in 10.0 mi WNW 5.8 mph - N/A   Overcast
9:55 AM 33.8 °F 28.6 °F 32.0 °F 93% 29.99 in 10.0 mi West 5.8 mph - N/A   Overcast
10:15 AM 34.7 °F 30.6 °F 31.3 °F 87% 29.99 in 10.0 mi WNW 4.6 mph - N/A   Overcast
10:35 AM 36.0 °F 30.3 °F 28.4 °F 74% 29.99 in 10.0 mi West 6.9 mph - N/A   Overcast
10:55 AM 37.2 °F 31.2 °F 28.2 °F 70% 30.00 in 10.0 mi NW 8.1 mph - N/A   Overcast
11:15 AM 38.5 °F 33.4 °F 27.7 °F 65% 30.00 in 10.0 mi NW 6.9 mph - N/A   Overcast
11:35 AM 38.5 °F 34.1 °F 27.3 °F 64% 29.99 in 10.0 mi WNW 5.8 mph - N/A   Overcast
11:55 AM 39.6 °F 35.4 °F 26.6 °F 60% 29.99 in 10.0 mi WNW 5.8 mph - N/A   Overcast
12:15 PM 40.5 °F 35.1 °F 25.9 °F 56% 29.99 in 10.0 mi NW 8.1 mph - N/A   Overcast
12:35 PM 42.3 °F 36.8 °F 27.5 °F 56% 29.99 in 10.0 mi West 9.2 mph - N/A   Overcast
12:55 PM 40.5 °F 34.1 °F 25.0 °F 54% 29.98 in 10.0 mi WNW 10.4 mph 17.3 mph N/A   Overcast
1:15 PM 40.3 °F 33.9 °F 26.4 °F 58% 29.98 in 10.0 mi West 10.4 mph - N/A   Overcast
1:35 PM 40.5 °F 33.6 °F 26.4 °F 57% 29.97 in 10.0 mi West 11.5 mph - N/A   Overcast
1:55 PM 40.6 °F 33.4 °F 26.6 °F 57% 29.97 in 10.0 mi West 12.7 mph - N/A   Overcast
2:15 PM 41.2 °F 33.7 °F 25.0 °F 53% 29.97 in 10.0 mi West 13.8 mph - N/A   Mostly Cloudy
2:35 PM 41.0 °F 34.3 °F 26.1 °F 55% 29.97 in 10.0 mi West 11.5 mph 15.0 mph N/A   Overcast
2:55 PM 40.1 °F 34.7 °F 27.1 °F 60% 29.97 in 10.0 mi WNW 8.1 mph 17.3 mph N/A   Overcast
3:15 PM 40.1 °F 36.9 °F 27.5 °F 61% 29.97 in 10.0 mi West 4.6 mph - N/A   Overcast
3:35 PM 41.0 °F 31.9 °F 23.0 °F 49% 29.97 in 10.0 mi West 19.6 mph 23.0 mph N/A   Overcast
3:55 PM 40.1 °F 34.1 °F 25.3 °F 56% 29.97 in 10.0 mi WNW 9.2 mph - N/A   Overcast
4:15 PM 40.6 °F 33.8 °F 22.8 °F 49% 29.97 in 10.0 mi WNW 11.5 mph 16.1 mph N/A   Overcast
4:35 PM 41.0 °F 33.9 °F 22.3 °F 47% 29.97 in 10.0 mi West 12.7 mph 18.4 mph N/A   Overcast
4:55 PM 40.5 °F 33.6 °F 21.4 °F 47% 29.98 in 10.0 mi West 11.5 mph 17.3 mph N/A   Overcast
5:15 PM 40.3 °F 34.9 °F 21.4 °F 47% 29.98 in 10.0 mi WNW 8.1 mph - N/A   Overcast
5:35 PM 40.1 °F 34.1 °F 22.1 °F 49% 29.98 in 10.0 mi West 9.2 mph - N/A   Overcast
5:55 PM 39.6 °F 34.7 °F 22.3 °F 50% 29.98 in 10.0 mi West 6.9 mph - N/A   Overcast
6:15 PM 39.2 °F 34.2 °F 22.1 °F 50% 29.98 in 10.0 mi West 6.9 mph - N/A   Overcast
6:35 PM 39.2 °F 32.5 °F 21.6 °F 49% 29.98 in 10.0 mi West 10.4 mph - N/A   Overcast
6:55 PM 38.7 °F 32.4 °F 22.1 °F 51% 29.99 in 10.0 mi West 9.2 mph - N/A   Overcast
7:15 PM 38.3 °F 31.4 °F 22.6 °F 53% 29.99 in 10.0 mi West 10.4 mph - N/A   Overcast
7:35 PM 38.5 °F 32.1 °F 23.2 °F 54% 30.00 in 10.0 mi West 9.2 mph - N/A   Overcast
7:55 PM 38.3 °F 31.9 °F 23.5 °F 55% 30.00 in 10.0 mi West 9.2 mph - N/A   Overcast
8:15 PM 37.9 °F 31.5 °F 23.9 °F 57% 30.00 in 10.0 mi West 9.2 mph - N/A   Overcast
8:35 PM 37.6 °F 31.6 °F 24.6 °F 60% 30.00 in 10.0 mi West 8.1 mph - N/A   Overcast
8:55 PM 37.8 °F 31.8 °F 24.8 °F 60% 30.00 in 10.0 mi West 8.1 mph - N/A   Overcast
9:15 PM 37.6 °F 29.6 °F 25.3 °F 61% 30.00 in 10.0 mi WNW 12.7 mph - N/A   Overcast
9:35 PM 37.4 °F 32.1 °F 25.9 °F 63% 30.00 in 10.0 mi West 6.9 mph - N/A   Overcast
9:55 PM 37.0 °F 31.0 °F 26.6 °F 66% 30.00 in 10.0 mi West 8.1 mph - N/A   Overcast
10:15 PM 36.9 °F 31.4 °F 26.6 °F 66% 30.00 in 10.0 mi West 6.9 mph - N/A   Overcast
10:35 PM 36.7 °F 31.2 °F 27.0 °F 68% 30.00 in 10.0 mi West 6.9 mph - N/A   Overcast
10:55 PM 36.5 °F 30.3 °F 27.1 °F 69% 30.00 in 10.0 mi West 8.1 mph - N/A   Overcast
11:15 PM 36.5 °F 31.0 °F 26.6 °F 67% 30.00 in 10.0 mi West 6.9 mph - N/A   Overcast
11:35 PM 36.1 °F 30.6 °F 26.6 °F 68% 30.00 in 10.0 mi WNW 6.9 mph - N/A   Overcast
11:55 PM 35.8 °F 30.9 °F 27.0 °F 70% 30.01 in 10.0 mi WNW 5.8 mph - N/A   Overcast